User: anonymous   Login
Location: Young's Pond
(41.2695°N, 72.7766°W)
Time: 05:52:37
(UTC-04:00)
Language:

CZ-4B R/B - Orbit

View from above orbital plane
View from above orbital plane
View from above satellite
View from above satellite

Ground track
Ground track

The orbit data is extracted from the following two-line orbital elements,

1 29093U 06015B   16144.22096466  .00003711  00000-0  98766-4 0  9998
2 29093  97.4835 241.1285 0068029 277.0007  82.3502 15.36550218557588
Epoch (UTC): 23 May 2016 05:18:11
Eccentricity: 0.0068029
inclination: 97.4835°
perigee height: 410 km
apogee height: 503 km
right ascension of ascending node: 241.1285°
argument of perigee: 277.0007°
revolutions per day: 15.36550218
mean anomaly at epoch: 82.3502°
orbit number at epoch: 55758

The dashed part of the orbit path shows where the satellite is in the earth's shadow,  

DLR